When you browse on this site, cookies collect data to enhance your experience and personalize the content and advertising you see.
Visit our Privacy Policy to learn more. By continuing to use the site, you agree to this use of cookies and data.
  • En España
  • Lista de países
  • Para 7 días
  • Temperatura del agua
  • El tiempo en el mapa
  • Informadores
  • user-avatar
    Iniciar sesión

    Tiempo cada hora San Luis

    Hoy, 23 Octubre, Miércoles

    Tiempo Temperatura Precipitaciones Viento Presión Humedad
    00:00 +13°C° 0 mm 6 mps 699 mmHg 53%
    01:00 +13°C° 0 mm 5 mps 699 mmHg 52%
    02:00 +13°C° 0 mm 5 mps 699 mmHg 51%
    03:00 +13°C° 0 mm 5 mps 699 mmHg 50%
    04:00 +13°C° 0 mm 4 mps 699 mmHg 50%
    05:00 +12°C° 0 mm 4 mps 699 mmHg 49%
    06:00 +14°C° 0 mm 4 mps 700 mmHg 45%
    07:00 +17°C° 0 mm 3 mps 700 mmHg 41%
    08:00 +19°C° 0 mm 3 mps 701 mmHg 36%
    09:00 +20°C° 0 mm 3 mps 701 mmHg 33%
    10:00 +22°C° 0 mm 3 mps 701 mmHg 31%
    11:00 +24°C° 0 mm 2 mps 701 mmHg 28%
    12:00 +25°C° 0 mm 2 mps 701 mmHg 27%
    13:00 +26°C° 0 mm 2 mps 700 mmHg 26%
    14:00 +27°C° 0 mm 2 mps 699 mmHg 25%
    15:00 +27°C° 0 mm 2 mps 699 mmHg 24%
    16:00 +27°C° 0 mm 2 mps 698 mmHg 23%
    17:00 +27°C° 0 mm 3 mps 698 mmHg 23%
    18:00 +25°C° 0 mm 4 mps 698 mmHg 25%
    19:00 +22°C° 0 mm 5 mps 698 mmHg 28%
    20:00 +20°C° 0 mm 6 mps 697 mmHg 30%
    21:00 +19°C° 0 mm 5 mps 697 mmHg 33%
    22:00 +19°C° 0 mm 5 mps 697 mmHg 36%
    23:00 +18°C° 0 mm 4 mps 697 mmHg 39%

    Mañana, 24 Octubre, Jueves

    Tiempo Temperatura Precipitaciones Viento Presión Humedad
    00:00 +18°C° 0 mm 4 mps 697 mmHg 43%
    01:00 +18°C° 0 mm 4 mps 697 mmHg 46%
    02:00 +18°C° 0 mm 4 mps 696 mmHg 49%
    03:00 +17°C° 0 mm 5 mps 696 mmHg 51%
    04:00 +17°C° 0 mm 5 mps 696 mmHg 52%
    05:00 +17°C° 0 mm 5 mps 696 mmHg 53%
    06:00 +20°C° 0 mm 6 mps 697 mmHg 49%
    07:00 +21°C° 0 mm 6 mps 697 mmHg 46%
    08:00 +22°C° 0 mm 6 mps 697 mmHg 42%
    09:00 +24°C° 0 mm 6 mps 697 mmHg 38%
    10:00 +27°C° 0 mm 5 mps 698 mmHg 33%
    11:00 +28°C° 0 mm 5 mps 698 mmHg 29%
    12:00 +29°C° 0 mm 5 mps 697 mmHg 28%
    13:00 +29°C° 0 mm 5 mps 697 mmHg 27%
    14:00 +29°C° 0 mm 4 mps 696 mmHg 26%
    15:00 +29°C° 0 mm 4 mps 696 mmHg 29%
    16:00 +28°C° 0 mm 4 mps 695 mmHg 32%
    17:00 +27°C° 0 mm 4 mps 695 mmHg 35%
    18:00 +23°C° 0 mm 5 mps 695 mmHg 45%
    19:00 +21°C° 0 mm 6 mps 696 mmHg 55%
    20:00 +18°C° 0 mm 7 mps 696 mmHg 65%
    21:00 +17°C° 0.1 mm 6 mps 696 mmHg 64%
    22:00 +17°C° 0.1 mm 6 mps 697 mmHg 63%
    23:00 +17°C° 0.1 mm 5 mps 697 mmHg 62%

    Pasado mañana, 25 Octubre, Viernes

    Tiempo Temperatura Precipitaciones Viento Presión Humedad
    00:00 +17°C° 0.2 mm 5 mps 697 mmHg 62%
    01:00 +18°C° 0.2 mm 4 mps 697 mmHg 62%
    02:00 +18°C° 0.2 mm 4 mps 697 mmHg 62%
    03:00 +18°C° 0.2 mm 3 mps 697 mmHg 64%
    04:00 +17°C° 0.2 mm 2 mps 697 mmHg 66%
    05:00 +18°C° 0.2 mm 1 mps 698 mmHg 67%
    06:00 +20°C° 0 mm 1 mps 698 mmHg 61%
    07:00 +20°C° 0 mm 2 mps 699 mmHg 55%
    08:00 +23°C° 0 mm 2 mps 699 mmHg 49%
    09:00 +24°C° 0 mm 2 mps 699 mmHg 45%
    10:00 +26°C° 0 mm 2 mps 699 mmHg 41%
    11:00 +27°C° 0 mm 3 mps 700 mmHg 37%
    12:00 +28°C° 0 mm 3 mps 699 mmHg 34%
    13:00 +29°C° 0 mm 4 mps 698 mmHg 32%
    14:00 +30°C° 0 mm 4 mps 697 mmHg 30%
    15:00 +30°C° 0 mm 4 mps 697 mmHg 29%
    16:00 +30°C° 0 mm 5 mps 696 mmHg 28%
    17:00 +32°C° 0 mm 5 mps 695 mmHg 27%
    18:00 +29°C° 0 mm 5 mps 695 mmHg 31%
    19:00 +27°C° 0 mm 5 mps 695 mmHg 34%
    20:00 +25°C° 0 mm 5 mps 695 mmHg 37%
    21:00 +24°C° 0 mm 6 mps 695 mmHg 38%
    22:00 +24°C° 0 mm 6 mps 695 mmHg 38%
    23:00 +24°C° 0 mm 7 mps 695 mmHg 39%

    26 Octubre, Sábado

    Tiempo Temperatura Precipitaciones Viento Presión Humedad
    00:00 +24°C° 0 mm 7 mps 694 mmHg 41%
    01:00 +23°C° 0 mm 7 mps 693 mmHg 42%
    02:00 +23°C° 0 mm 8 mps 692 mmHg 44%
    03:00 +23°C° 0 mm 8 mps 692 mmHg 45%
    04:00 +22°C° 0 mm 9 mps 692 mmHg 45%
    05:00 +22°C° 0 mm 10 mps 691 mmHg 46%
    06:00 +23°C° 0 mm 11 mps 691 mmHg 43%
    07:00 +24°C° 0 mm 12 mps 691 mmHg 41%
    08:00 +26°C° 0 mm 13 mps 691 mmHg 38%
    09:00 +28°C° 0 mm 12 mps 691 mmHg 35%
    10:00 +31°C° 0 mm 12 mps 691 mmHg 32%
    11:00 +32°C° 0 mm 12 mps 690 mmHg 29%
    12:00 +33°C° 0 mm 11 mps 690 mmHg 28%
    13:00 +34°C° 0 mm 10 mps 689 mmHg 26%
    14:00 +35°C° 0 mm 9 mps 689 mmHg 24%
    15:00 +35°C° 0 mm 7 mps 688 mmHg 23%
    16:00 +35°C° 0 mm 5 mps 688 mmHg 21%
    17:00 +35°C° 0 mm 4 mps 688 mmHg 19%
    18:00 +32°C° 0 mm 5 mps 688 mmHg 28%
    19:00 +28°C° 0 mm 6 mps 689 mmHg 38%
    20:00 +24°C° 0 mm 7 mps 689 mmHg 47%
    21:00 +23°C° 0 mm 7 mps 690 mmHg 53%
    22:00 +22°C° 0 mm 7 mps 690 mmHg 60%
    23:00 +21°C° 0 mm 8 mps 691 mmHg 66%

    27 Octubre, Domingo

    Tiempo Temperatura Precipitaciones Viento Presión Humedad
    00:00 +20°C° 0 mm 8 mps 691 mmHg 62%
    01:00 +19°C° 0 mm 9 mps 692 mmHg 58%
    02:00 +18°C° 0 mm 10 mps 692 mmHg 55%
    03:00 +17°C° 0 mm 11 mps 693 mmHg 51%
    04:00 +14°C° 0 mm 11 mps 693 mmHg 47%
    05:00 +12°C° 0 mm 11 mps 694 mmHg 43%
    06:00 +13°C° 0 mm 11 mps 695 mmHg 42%
    07:00 +13°C° 0 mm 11 mps 695 mmHg 41%
    08:00 +13°C° 0 mm 11 mps 696 mmHg 40%
    09:00 +16°C° 0 mm 10 mps 696 mmHg 36%
    10:00 +18°C° 0 mm 10 mps 696 mmHg 32%
    11:00 +21°C° 0 mm 9 mps 696 mmHg 28%
    12:00 +22°C° 0 mm 9 mps 696 mmHg 27%
    13:00 +24°C° 0 mm 9 mps 695 mmHg 26%
    14:00 +26°C° 0 mm 8 mps 695 mmHg 24%
    15:00 +26°C° 0 mm 9 mps 694 mmHg 24%
    16:00 +26°C° 0 mm 9 mps 693 mmHg 24%
    17:00 +26°C° 0 mm 9 mps 693 mmHg 25%
    18:00 +23°C° 0 mm 9 mps 693 mmHg 29%
    19:00 +21°C° 0 mm 9 mps 693 mmHg 33%
    20:00 +18°C° 0 mm 10 mps 693 mmHg 37%
    21:00 +17°C° 0 mm 9 mps 693 mmHg 39%
    22:00 +16°C° 0 mm 8 mps 694 mmHg 41%
    23:00 +16°C° 0 mm 8 mps 694 mmHg 43%

    28 Octubre, Lunes

    Tiempo Temperatura Precipitaciones Viento Presión Humedad
    00:00 +15°C° 0 mm 7 mps 693 mmHg 43%
    01:00 +15°C° 0 mm 6 mps 693 mmHg 43%
    02:00 +15°C° 0 mm 5 mps 693 mmHg 43%
    03:00 +15°C° 0 mm 4 mps 693 mmHg 44%
    04:00 +15°C° 0 mm 4 mps 693 mmHg 46%
    05:00 +14°C° 0 mm 3 mps 693 mmHg 48%
    06:00 +17°C° 0 mm 4 mps 693 mmHg 44%
    07:00 +19°C° 0 mm 4 mps 693 mmHg 40%
    08:00 +21°C° 0 mm 5 mps 693 mmHg 36%
    09:00 +23°C° 0 mm 6 mps 693 mmHg 34%
    10:00 +24°C° 0 mm 7 mps 692 mmHg 32%
    11:00 +27°C° 0 mm 7 mps 692 mmHg 30%
    12:00 +28°C° 0 mm 7 mps 691 mmHg 29%
    13:00 +29°C° 0 mm 6 mps 690 mmHg 28%
    14:00 +29°C° 0 mm 6 mps 689 mmHg 27%
    15:00 +28°C° 0 mm 6 mps 689 mmHg 26%
    16:00 +27°C° 0 mm 7 mps 689 mmHg 25%
    17:00 +26°C° 0 mm 7 mps 688 mmHg 23%
    18:00 +24°C° 0 mm 7 mps 689 mmHg 25%
    19:00 +22°C° 0 mm 6 mps 690 mmHg 26%
    20:00 +21°C° 0 mm 6 mps 691 mmHg 27%
    21:00 +19°C° 0 mm 6 mps 691 mmHg 35%
    22:00 +17°C° 0 mm 7 mps 692 mmHg 43%
    23:00 +16°C° 0 mm 8 mps 693 mmHg 52%

    29 Octubre, Martes

    Tiempo Temperatura Precipitaciones Viento Presión Humedad
    00:00 +15°C° 0 mm 7 mps 693 mmHg 48%
    01:00 +14°C° 0 mm 7 mps 693 mmHg 44%
    02:00 +12°C° 0 mm 7 mps 693 mmHg 40%
    03:00 +12°C° 0 mm 7 mps 693 mmHg 41%
    04:00 +11°C° 0 mm 7 mps 694 mmHg 43%
    05:00 +10°C° 0 mm 7 mps 694 mmHg 45%
    06:00 +11°C° 0 mm 8 mps 695 mmHg 40%
    07:00 +12°C° 0 mm 9 mps 696 mmHg 35%
    08:00 +14°C° 0 mm 10 mps 697 mmHg 30%
    09:00 +17°C° 0 mm 9 mps 697 mmHg 25%
    10:00 +20°C° 0 mm 8 mps 697 mmHg 21%
    11:00 +22°C° 0 mm 7 mps 697 mmHg 16%
    12:00 +23°C° 0 mm 6 mps 697 mmHg 15%
    13:00 +25°C° 0 mm 5 mps 696 mmHg 14%
    14:00 +27°C° 0 mm 4 mps 696 mmHg 13%
    15:00 +27°C° 0 mm 5 mps 695 mmHg 13%
    16:00 +26°C° 0 mm 6 mps 695 mmHg 13%
    17:00 +26°C° 0 mm 6 mps 694 mmHg 14%
    18:00 +23°C° 0 mm 8 mps 694 mmHg 18%
    19:00 +19°C° 0 mm 9 mps 694 mmHg 22%
    20:00 +17°C° 0 mm 10 mps 694 mmHg 25%
    21:00 +16°C° 0 mm 9 mps 694 mmHg 29%
    22:00 +16°C° 0 mm 8 mps 695 mmHg 33%
    23:00 +15°C° 0 mm 7 mps 695 mmHg 36%
    Mostrar más